Location: Washington
(38.8950°N, 77.0370°W)
Time: 11:47:40
(UTC-05:00)

Tiangong 1 - Visible Passes

Search period start: 27 January 2015 00:00
Search period end: 06 February 2015 00:00
Orbit: 356 x 374 km, 42.8° (Epoch: 27 January)

Date Brightness Start Highest point End Pass type
(mag) Time Alt. Az. Time Alt. Az. Time Alt. Az.
30 Jan 3.6 18:45:56 10° SSE 18:46:17 11° SSE 18:46:17 11° SSE visible
31 Jan 2.9 19:13:50 10° SW 19:15:26 23° SSW 19:15:26 23° SSW visible
01 Feb 3.1 18:08:43 10° S 18:10:37 16° SE 18:12:35 10° ESE visible
01 Feb 3.9 19:43:32 10° WSW 19:44:26 18° WSW 19:44:26 18° WSW visible
02 Feb 1.5 18:37:30 10° SW 18:40:25 44° SSE 18:41:31 30° E visible
03 Feb 1.1 19:07:19 10° WSW 19:10:16 70° NW 19:10:16 70° NW visible
04 Feb 1.2 18:01:00 10° WSW 18:04:01 63° SSE 18:07:03 10° ENE visible
04 Feb 3.4 19:37:28 10° W 19:38:54 23° WNW 19:38:54 23° WNW visible
05 Feb 1.3 18:30:53 10° W 18:33:53 57° NNW 18:35:40 22° ENE visible
